Cloud_Cover
100 100 100 33 41 90 99 8 13 80 66 93 94 100 100 100 100 35 5 30 26 71 59 53 40 14 5 9 33 19 52 98 100 100 100 100 100 100 100 100 100 100 100
100 87 100 86 27 5 8 86 99 18 27 32 72 24 0 2 5 42 5 40 100 100 98 63 78 14 5 9 82 90 50 11 69 100 100 100 100 100 100 98 86 100 100
55 85 76 68 36 6 5 0 0 0 0 0 6 15 65 19 5 27 13 35 83 98 46 72 97 92 100 98 53 33 22 35 32 100 100 100 100 100 100 79 96 99 99
100 12 24 79 24 9 6 4 2 3 0 0 0 4 83 21 86 42 35 14 5 5 15 31 40 73 39 19 7 32 94 89 73 100 100 99 100 100 100 81 97 66 77
100 87 81 6 3 5 5 5 5 5 3 0 1 5 19 5 5 2 3 6 6 53 55 45 8 5 10 13 22 58 45 52 99 100 100 100 100 100 63 79 100 100 100
96 100 30 5 80 100 68 63 5 5 5 5 10 53 2 0 5 5 5 0 0 5 5 5 5 5 6 100 75 58 71 5 6 7 57 100 100 100 100 100 100 100 100
97 97 63 72 25 99 50 47 98 5 5 7 68 44 6 5 13 5 5 8 9 6 14 58 20 5 5 5 7 6 5 6 16 96 71 28 61 85 99 77 93 99 100
100 87 93 100 100 100 99 64 97 30 81 48 10 12 79 38 24 6 5 5 8 40 22 76 66 17 39 20 5 5 4 4 5 5 5 4 5 85 97 67 84 89 94
100 100 95 100 100 100 100 96 82 99 100 75 29 55 5 46 45 99 7 88 82 18 92 100 96 100 75 7 5 5 5 5 5 10 5 0 0 0 4 46 38 78 85
100 100 100 100 98 100 100 100 100 100 100 100 100 53 35 29 76 38 32 62 66 66 8 11 41 20 6 67 5 5 5 24 5 5 4 0 0 0 0 3 5 5 5
100 100 100 100 100 100 100 100 100 100 100 100 100 100 91 27 48 69 56 11 5 4 99 72 8 22 67 13 22 99 17 28 13 6 11 5 4 5 5 5 5 5 5
84 100 100 100 100 100 100 100 100 100 100 100 100 100 88 62 74 19 5 6 5 5 5 18 30 5 5 13 44 100 38 40 5 5 48 42 9 5 5 5 5 5 3
17 100 100 100 100 100 100 100 100 100 100 100 100 100 100 78 100 100 80 5 5 13 5 75 12 2 13 100 100 94 7 43 12 5 25 5 5 5 5 2 1 0 0
86 100 99 100 100 100 100 100 100 100 100 100 100 100 100 100 100 100 86 42 22 81 50 8 5 64 100 100 100 13 5 8 15 12 5 5 5 5 0 0 0 0 0
100 100 100 100 100 100 100 100 100 100 100 100 100 100 100 100 100 100 100 100 90 95 98 99 100 100 100 98 77 10 5 5 5 5 5 4 4 1 4 0 0 5 3
100 100 100 100 100 100 100 100 100 100 100 100 100 100 100 100 100 100 100 96 100 100 100 100 100 73 56 5 21 83 17 2 5 5 4 2 3 3 0 4 5 4 5
100 100 100 100 100 100 100 100 100 100 100 100 100 100 100 100 100 100 100 100 98 100 100 100 100 89 100 18 5 17 5 22 8 5 1 4 5 5 5 5 5 8 5
100 100 100 100 100 100 100 100 100 100 100 100 100 100 100 100 100 100 100 100 100 100 89 20 45 100 51 5 5 12 6 5 5 1 0 5 5 5 4 8 4 69 5
100 99 100 100 100 100 100 100 100 100 100 100 100 100 100 100 100 100 100 99 58 9 5 5 18 100 98 15 40 6 7 4 4 0 0 2 19 0 16 81 92 72 49
5 38 73 29 100 100 100 100 100 100 100 100 100 97 100 99 22 11 78 20 5 5 5 5 87 100 36 4 5 4 2 0 0 1 4 88 27 41 88 3 0 1 0
100 54 97 23 96 99 100 100 78 90 100 85 100 13 5 5 5 5 5 5 5 5 20 100 100 26 5 5 9 72 26 38 83 84 100 91 67 96 5 0 3 2 4
49 90 99 85 60 61 100 100 100 100 100 100 100 69 54 36 68 83 72 50 66 12 9 23 60 99 93 66 100 98 69 100 90 38 42 15 4 0 0 0 0 4 2
38 95 100 46 96 100 100 100 100 100 100 80 35 92 82 100 55 33 36 59 65 97 28 26 99 74 94 100 80 35 100 71 21 85 5 5 0 0 1 4 0 0 0
36 49 100 5 86 100 100 100 100 100 99 100 100 65 93 99 78 100 100 100 91 100 44 98 97 100 99 93 92 100 100 91 100 83 6 4 0 4 5 5 5 0 0
100 99 98 83 38 100 100 100 100 100 100 89 100 100 100 100 100 100 100 100 100 72 93 100 100 100 100 92 100 93 28 93 12 75 40 5 7 60 61 5 5 0 0
72 51 67 70 60 76 100 100 100 98 100 100 100 100 100 100 100 100 100 100 100 100 100 100 100 100 100 100 100 98 85 100 100 100 14 8 17 78 96 22 4 0 0